Tracking 28920 objects as of 25-May-2024
HD Live streaming from Space Station
objects crossing your sky now

COSMOS 2494 (SKRL 756)

Track COSMOS 2494 (SKRL 756) now!
10-day predictions
COSMOS 2494 (SKRL 756) is classified as:


NORAD ID: 39491
Int'l Code: 2013-078B
Perigee: 573.5 km
Apogee: 599.4 km
Inclination: 82.4 °
Period: 96.3 minutes
Semi major axis: 6957 km
RCS: Unknown
Launch date: December 28, 2013
Source: Commonwealth of Independent States (former USSR) (CIS)
Launch site: PLESETSK MISSILE AND SPACE COMPLEX (PKMTR)
Your satellite tracking list
Your tracking list is empty




NASA's NSSDC Master Catalog

Two Line Element Set (TLE):
1 39491U 13078B   24146.19436534  .00005682  00000-0  50281-3 0  9997
2 39491  82.4162 265.8468 0018621 227.6944 132.2701 14.95997819565938
Source of the keplerian elements: AFSPC